Flag for U.S.A. Weather past 2 weeks in Pontiac, Michigan, U.S.A.

Now
75 °F

Sunny.


Feels Like: 77 °F
Forecast: 64 / 82 °F
Wind: 12 mph from West

Location: Oakland County International Airport

Current Time: Jul 30, 2015 at 10:13:42 AM

Latest Report: Jul 30, 2015 at 9:53 AM


Visibility: 10 mi

Pressure: 29.94 "Hg

Humidity: 60%

Dew point: 60 °F

Location of PontiacLocation

Historic Weather in Pontiac — Graph

°F

Pontiac temperature yesterday

Maximum temperature yesterday: 90 °F (at 2:53 PM)
Minimum temperature yesterday: 65 °F (at 3:53 AM)
Average temperature yesterday: 75 °F

Past Weeks' High & Low Weather Summary

 TemperatureHumidityPressure
High90 °F (Jul 27, 5:53 PM)97% (Jul 17, 7:53 AM)30.09 "Hg (Jul 17, 7:53 AM)
Low51 °F (Jul 16, 6:53 AM)31% (Jul 27, 5:53 PM)29.69 "Hg (Jul 21, 2:53 AM)
Average74 °F67%29.91 "Hg
* Reported Jul 15 8:53 AM — Jul 30 8:53 AM, Pontiac, Weather by CustomWeather, © 2015

Note: Actual official high and low records may vary slightly from our data, if they occured in-between our weather recording intervals... More about our weather records

Advertising

Pontiac weather history for previous 24 hours

 ConditionsComfort  
Time TempWeatherWind HumidityBarometerVisibility
8:53 AM
Thu, Jul 30
72 °FSunny.12 mph64%29.94 "Hg10 mi
7:53 AM68 °FSunny.7 mph73%29.93 "Hg10 mi
6:53 AM64 °FClear.6 mph81%29.93 "Hg10 mi
5:53 AM65 °FPassing clouds.6 mph78%29.91 "Hg10 mi
4:53 AM66 °FClear.9 mph75%29.90 "Hg10 mi
3:53 AM67 °FClear.9 mph71%29.90 "Hg10 mi
2:53 AM68 °FClear.12 mph68%29.88 "Hg10 mi
1:53 AM69 °FClear.7 mph66%29.90 "Hg10 mi
12:53 AM70 °FClear.10 mph68%29.90 "Hg10 mi
11:53 PM
Wed, Jul 29
68 °FPassing clouds.7 mph70%29.90 "Hg10 mi
10:53 PM70 °FPassing clouds.7 mph66%29.90 "Hg10 mi
9:53 PM74 °FPassing clouds.10 mph57%29.89 "Hg10 mi
8:53 PM78 °FScattered clouds.10 mph66%29.87 "Hg10 mi
7:53 PM80 °FPassing clouds.7 mph81%29.86 "Hg10 mi
6:53 PM78 °FBroken clouds.9 mph84%29.87 "Hg10 mi
5:53 PM76 °FThunderstorms. Broken clouds.12 mph94%29.86 "Hg7 mi
4:53 PM79 °FBroken clouds.5 mph88%29.87 "Hg9 mi
3:59 PM76 °FThunderstorms. Fog.5 mph94%29.91 "Hg4 mi
2:53 PM90 °FBroken clouds.10 mph54%29.84 "Hg10 mi
1:53 PM88 °FBroken clouds.8 mph55%29.88 "Hg10 mi
12:53 PM86 °FPartly sunny.9 mph61%29.90 "Hg10 mi
11:53 AM85 °FOvercast.9 mph61%29.91 "Hg10 mi
10:53 AM83 °FHigh level clouds.6 mph61%29.92 "Hg10 mi
Weather by CustomWeather, © 2015

See weather overviewHow to use our weather pages